www.pogodaiklimat.ru

Погода и климат >> Архив погоды >> Россия >> Воронежская область >> Богучар


ПОГОДА в Богучаре

  • Прогноз погоды в Богучаре
  • Монитор погоды в Богучаре

АРХИВ ПОГОДЫ в Богучаре

Время (UTC), дата Ветер
(напр.,м/с)
 
Видим.   Явления Облачность Т
(С)
Тd
(С)
f
(%)
Тe
(С)
Тes
(С)
Комфортность P
(гПа)
Po
(гПа)
Тmin
(С)
Tmax
(С)
R
(мм)
R24
(мм)
S
(см)
21 19.05 СВ 1 10 км ясно +13.1 +7.4 68 +13 +13 1017.0 1006.9
00 20.05 С 3 10 км ясно +14.2 +4.2 51 +13 +13 1018.0 1008.0
03 20.05 СВ 1 20 км ясно +12.4 +5.6 63 +13 +14 1019.4 1009.3 +9.5
06 20.05 Ю 2 20 км ясно +18.2 +5.5 43 +19 +29 1020.2 1010.3
09 20.05 С 2 20 км 6/0
[Ci]
+21.9 +2.8 28 +22 +37 комфорт 1020.4 1010.6
12 20.05 С 3 20 км 4/0
[Ci]
+22.8 +2.4 26 +22 +31 комфорт 1019.6 1009.9
15 20.05 С 3 20 км 3/0
[Ci]
+22.4 -1.0 21 +21 +23 комфорт 1019.3 1009.6 +23.6
18 20.05 С 2 10 км ясно +17.1 +2.3 37 +17 +17 1019.9 1010.0
21 20.05 С 1 10 км ясно +12.2 +2.3 51 +13 +13 1021.1 1010.9
00 21.05 С 1 10 км ясно +7.9 +3.7 75 +7 +7 1021.3 1011.0
03 21.05 СВ 1 20 км ясно +8.1 +4.5 78 +7 +9 1021.9 1011.6 +6.5
06 21.05 В 1 20 км 3/0
[Ci fib]
+18.0 +6.6 47 +19 +30 1022.1 1012.2
09 21.05 ЮВ 2 20 км 4/0
[Ci fib]
+22.0 +2.3 27 +22 +37 комфорт 1012.8 1011.9
12 21.05 Ю 3 20 км 4/0
[Ac trans]
+23.5 +0.1 21 +22 +30 комфорт 1020.3 1010.6
15 21.05 ЮВ 2 20 км 8/0
[Cc]
+23.6 +3.2 26 +23 +25 комфорт 1019.1 1009.4 +24.6
18 21.05 С 2 10 км 6/0
[Cc]
+17.8 +3.2 38 +18 +18 1018.6 1008.7
21 21.05 штиль 0 10 км 3/0
[Cc]
+13.3 +5.9 61 +13 +13 1018.9 1008.8
00 22.05 СВ 1 10 км 8/0
[Cc]
+11.8 +4.3 60 +12 +12 1018.2 1008.0
03 22.05 штиль 0 20 км 10/8 600 м
[Cb calv As trans]
+13.6 +5.0 56 +13 +14 1017.4 1007.3 +11.8
06 22.05 Ю 3 20 км 10/4 600 м
[Cb calv Cc]
+17.6 +8.5 55 +18 +22 1016.5 1006.6
09 22.05 Ю 4 20 км 9/0
[Ac trans Cc]
+22.1 +9.6 45 +24 +30 комфорт 1014.4 1004.7
12 22.05 Ю 4
{11}
20 км 8/3 1000 м
[Cu med, cong Cc]
+24.2 +4.3 28 +24 +29 комфорт 1012.9 1003.3
15 22.05 Ю 3
{10}
20 км 8/0
[Ac trans Cc]
+22.0 +4.8 33 +22 +24 комфорт 1012.4 1002.6 +25.0
18 22.05 С 1 10 км 8/5 1000 м
[Sc Ac lent]
+17.1 +7.4 53 +18 +18 1011.3 1001.4
21 22.05 С 1 10 км 6/0
[Ac lent]
+15.5 +7.0 57 +16 +16 1009.8 999.9
00 23.05 штиль 0 10 км слаб. ливневой дождь 10/8 600 м
[Cb calv Ac lent]
+13.6 +10.1 79 +13 +13 1008.7 998.7
03 23.05 СВ 1 2000 м ливневой дождь 10/8 600 м
[Cb calv As trans]
+11.7 +11.1 96 +11 +12 1008.3 998.3 +11.7 6
06 23.05 З 3 10 км слаб. ливневой дождь 10/8 600 м
[Cb calv As trans]
+14.3 +11.7 84 +13 +14 1008.6 998.7
09 23.05 З 3 10 км слаб. ливневой дождь 10/8 600 м
[Cb calv As trans]
+14.7 +11.5 81 +14 +15 1008.5 998.7
12 23.05 З 2 20 км {ливн. осадки} 10/6 600 м
[Cb calv As trans]
+18.6 +11.5 63 +20 +22 1007.4 997.6
15 23.05 ЮЗ 3 20 км 6/0
[Cc]
+20.8 +11.9 57 +23 +25 комфорт 1006.4 996.7 +21.3 3
18 23.05 З 2 10 км 4/0
[As trans]
+16.8 +12.7 77 +17 +17 1006.9 997.1
21 23.05 ЮЗ 2 10 км ясно +13.5 +11.8 89 +13 +13 1007.3 997.3
00 24.05 ЮЗ 1 10 км ясно +12.3 +11.0 92 +12 +12 1007.3 997.3
03 24.05 штиль 0 20 км 3/0
[As trans]
+13.4 +11.9 91 +13 +14 1007.7 997.4 +11.7
06 24.05 СЗ 3 20 км ясно +20.1 +12.5 62 +22 +31 комфорт 1008.0 998.3
09 24.05 З 2 20 км 6/6 1000 м
[Cu med, cong]
+24.7 +12.6 47 +27 +33 жарко 1008.4 998.8
12 24.05 З 1 20 км 8/8 1000 м
[Cu med, cong]
+26.7 +11.1 38 +28 +31 жарко 1007.8 998.3
15 24.05 С 2 20 км 8/8 1000 м
[Cb cap Ci fib]
+23.3 +12.5 51 +26 +27 жарко 1008.3 998.7 +26.8
18 24.05 С 2 10 км 8/8 600 м
[Cb calv]
+19.0 +13.8 72 +21 +21 комфорт 1010.2 1000.4
21 24.05 С 2 10 км ясно +17.9 +13.3 74 +18 +18 1010.3 1000.5
00 25.05 СВ 2 10 км 8/0
[Ac trans]
+16.3 +12.1 76 +16 +16 1010.5 1000.7
03 25.05 В 2 20 км 8/0
[Ci fib]
+16.4 +13.9 85 +17 +18 1010.9 1001.1 +14.8
06 25.05 В 2 20 км 8/4 1000 м
[Cu hum Ac lent Ci]
+20.4 +12.8 62 +23 +27 комфорт 1010.2 1000.5
09 25.05 В 3 20 км 8/5 1000 м
[Cu med, cong Cc]
+24.0 +15.0 57 +27 +33 жарко 1009.7 1000.1
12 25.05 В 3 20 км 9/6 600 м
[Cb calv Cc]
+23.7 +14.6 57 +26 +30 жарко 1007.8 998.2
15 25.05 В 2 20 км 10/8 600 м
[Cb calv As trans]
+23.5 +12.5 50 +25 +26 комфорт 1006.6 997.0 +25.7
18 25.05 Ю 6
{10}
10 км 10/8 600 м
[Cb calv As trans]
+20.4 +12.4 60 +22 +22 комфорт 1007.3 997.6
21 25.05 СВ 2 10 км {ливн. осадки} 10/8 600 м
[Cb calv As op]
+16.6 +14.9 90 +17 +17 1005.9 996.1
00 26.05 СВ 1 10 км {ливн. осадки} 8/8 600 м
[Cb calv]
+15.7 +13.9 89 +16 +16 1004.9 995.1
03 26.05 С 1 10 км слаб. ливневой дождь 10/10 600 м
[]
+15.8 +14.0 89 +16 +16 1004.0 994.2 +15.7 1
06 26.05 ЮЗ 1 10 км в посл. час ливневой дождь 10/8 600 м
[Cb calv As trans]
+16.5 +14.9 90 +17 +18 1003.5 993.7
09 26.05 СЗ 1 10 км слаб. ливневой дождь 10/10 600 м
[Cb calv]
+17.8 +16.1 90 +19 +19 1003.3 993.6
12 26.05 З 3 20 км в посл. час ливневой дождь 10/10 600 м
[Cb calv]
+19.8 +16.7 82 +23 +23 комфорт 1003.8 994.1
15 26.05 З 3 10 км 8/5 600 м
[Cb calv Ac lent]
+18.6 +15.2 81 +20 +20 1004.7 995.0 +20.1 9

 

Местоположение метеостанции Богучар (Воронежская область, Россия): широта 49.93 долгота 40.57 высота над уровнем моря 84 м.

В архиве по умолчанию представлена погода в Богучаре за последнюю неделю. Архивные данные за месяц целиком и за предыдущие месяцы, начиная с января 2011 года, Вы можете получить, выбрав интересующий диапазон дат из раскрывающегося списка и нажав кнопку "Ввод!".


*Определитесь, кто Вы:
робот инопланетянин человек

Внимание! Время в таблицах - всемирное. Для получения местного времени необходимо прибавить поправку, которая равна 3 ч.

Смотрите также архив погоды в соседних городах и на ближайших метеорологических станциях:

Погода в Казанской (Ростовская область, Россия) (44 км)
Погода в Павловск (Воронежская область, Россия) (56 км)
Погода в Калаче (Воронежская область, Россия) (64 км)
Погода в Чертково (Ростовская область, Россия) (68 км)
Погода в Беловодске (Луганская область, Украина) (106 км)
Погода в Миллерово (Ростовская область, Россия) (112 км)
Погода в Боковской (Ростовская область, Россия) (120 км)
Погода в Каменной Степи (Воронежская область, Россия) (125 км)
Погода в Урюпинске (Волгоградская область, Россия) (140 км)
Погода в Лисках (Воронежская область, Россия) (141 км)

Пояснения к столбцам:

Ветер - указаны скорость ветра в м/с - средняя за 10 мин, порывы в срок и между сроками (в фигурных скобках) и направление, откуда дует ветер: С - северный, СВ - северо-восточный, В - восточный, ЮВ - юго-восточный, Ю - южный, ЮЗ - юго-западный, З - западный, СЗ - северо-западный.
Видимость - горизонтальная дальность видимости в метрах или километрах. При видимости от 1 до 10 км при отсутствии осадков обычно наблюдается дымка, при ухудшении видимости до 1 км и менее - туман. В сухую погоду видимость может ухудшаться дымом, пылью или мглою.
Явления - указаны атмосферные явления, наблюдавшиеся в срок или в последний час перед сроком; фигурными скобками обозначены явления, наблюдавшиеся между сроками (за 1-3 часа до срока); квадратными скобками обозначены град или гололедные отложения с указанием их диаметра в мм.
Облачность - указаны через наклонную черту общая и нижняя облачность в баллах и высота нижней границы облаков в метрах; квадратными скобками обозначены формы облаков: Ci - перистые, Cs - перисто-слоистые, Cc - перисто-кучевые, Ac - высококучевые, As - высокослоистые, Sc - слоисто-кучевые, Ns - слоисто-дождевые, Cu - кучевые, Cb - кучево-дождевые. Подробнее классификацию облаков см. в Атласе облаков (PDF).
T - Температура воздуха - температура, измеренная на высоте 2 м над землей.
Td - Температура точки росы - температура, при понижении до которой содержащийся в воздухе водяной пар достигнет насыщения.
f - Относительная влажность воздуха - влажноcть воздуха, измеренная на высоте 2 м над землей.
Te - Эффективная температура - температура, которую ощущает одетый по сезону человек в тени. Характеристика душности погоды. При расчете учитывается влияние влажности воздуха и скорости ветра на теплоощущения человека.
Tes - Эффективная температура на солнце - температура, которую ощущает человек, с поправкой на солнечный нагрев. Характеристика знойности погоды. Зависит от высоты солнца над горизонтом, облачности и скорости ветра. Ночью, в пасмурную погоду, а также при ветре 12 м/с и более поправка равна нулю.
P - Атмосферное давление - приведенное к уровню моря атмосферное давление.
Po - Атмосферное давление - измеренное на уровне метеостанции атмосферное давление.
Tmin - Минимальная температура - минимум температуры воздуха на высоте 2 м над землей.
Tmax - Максимальная температура - максимум температуры воздуха на высоте 2 м над землей.
R - Количество осадков - Количество выпавших осадков за период времени, мм. При наведении курсора мыши на число - период времени, за который выпало указанное количество осадков.
R24 - Количество осадков - Количество выпавших осадков за 24 часа, мм.
S - Снежный покров - Высота снежного покрова, см. При наведении курсора мыши на число - состояние снежного покрова и степень покрытия местности в баллах.